START_TIME,STEP,MOV.,P11,t_acc.,P23,t_acc.,P27,t_acc.,A4,t_acc.
1989-08-24T00:00:24.040 ,5,0,0.,4.8,0.,4.8,0.,4.8,0.,4.8
1989-08-24T00:00:28.840 ,5,0,0.,4.8,0.,4.8,0.,4.8,0.,4.8
1989-08-24T00:00:33.640 ,5,0,0.,4.8,0.,4.8,0.,4.8,0.,4.8
1989-08-24T00:00:38.440 ,5,0,0.,4.8,0.,4.8,0.,4.8,0.,4.8
1989-08-24T00:00:43.240 ,5,0,0.,4.8,0.,4.8,0.,4.8,0.,4.8
1989-08-24T00:00:48.040 ,4,0,0.,4.8,0.,4.8,0.,4.8,0.,4.8
1989-08-24T00:00:52.840 ,4,0,0.,4.8,0.,4.8,0.,4.8,0.,4.8
1989-08-24T00:00:57.640 ,4,0,0.,4.8,0.,4.8,0.,4.8,0.,4.8
1989-08-24T00:01:02.440 ,4,0,0.,4.8,0.,4.8,0.,4.8,0.,4.8
1989-08-24T00:01:07.240 ,4,0,0.,4.8,0.,4.8,0.,4.8,0.,4.8
1989-08-24T00:01:12.040 ,4,0,0.,4.8,0.,4.8,0.,4.8,0.,4.8
1989-08-24T00:01:16.840 ,4,0,0.,4.8,0.,4.8,0.,4.8,0.,4.8
1989-08-24T00:01:21.640 ,4,0,0.,4.8,0.,4.8,0.,4.8,0.,4.8
1989-08-24T00:01:26.440 ,4,0,0.,4.8,0.,4.8,0.,4.8,0.,4.8
1989-08-24T00:01:31.240 ,4,0,0.,4.8,0.,4.8,0.,4.8,0.,4.8
1989-08-24T00:01:36.040 ,3,0,0.,4.8,0.,4.8,0.,4.8,0.,4.8
1989-08-24T00:01:40.840 ,3,0,0.,4.8,0.,4.8,0.,4.8,0.,4.8
1989-08-24T00:01:45.640 ,3,0,0.,4.8,0.,4.8,0.,4.8,0.,4.8
1989-08-24T00:01:50.440 ,3,0,0.,4.8,0.,4.8,0.,4.8,0.,4.8
1989-08-24T00:01:55.240 ,3,0,0.,4.8,0.,4.8,0.,4.8,0.,4.8
1989-08-24T00:02:00.040 ,3,0,0.,4.8,0.,4.8,0.,4.8,0.,4.8
1989-08-24T00:02:04.840 ,3,0,0.,4.8,0.,4.8,0.,4.8,0.,4.8
1989-08-24T00:02:09.640 ,3,0,0.,4.8,0.,4.8,0.,4.8,0.,4.8
1989-08-24T00:02:14.440 ,3,0,0.,4.8,0.,4.8,0.,4.8,0.,4.8
1989-08-24T00:02:19.240 ,3,0,0.,4.8,0.,4.8,0.,4.8,0.,4.8
1989-08-24T00:02:24.040 ,2,0,0.,4.8,0.,4.8,0.,4.8,0.,4.8
1989-08-24T00:02:28.840 ,2,0,0.,4.8,0.,4.8,0.,4.8,0.,4.8
1989-08-24T00:02:33.640 ,2,0,0.,4.8,0.,4.8,0.,4.8,0.,4.8
1989-08-24T00:02:38.440 ,2,0,0.,4.8,0.,4.8,0.,4.8,0.,4.8
1989-08-24T00:02:43.240 ,2,0,0.,4.8,0.,4.8,0.,4.8,0.,4.8
1989-08-24T00:02:48.040 ,2,0,0.,4.8,0.,4.8,0.,4.8,0.,4.8
1989-08-24T00:02:52.840 ,2,0,0.,4.8,0.,4.8,0.,4.8,0.,4.8
1989-08-24T00:02:57.640 ,2,0,0.,4.8,0.,4.8,0.,4.8,0.,4.8
1989-08-24T00:03:02.440 ,2,0,0.,4.8,0.,4.8,0.,4.8,0.,4.8
1989-08-24T00:03:07.240 ,2,0,0.,4.8,0.,4.8,0.,4.8,0.,4.8
1989-08-24T00:03:12.040 ,1,0,0.,4.8,0.,4.8,0.,4.8,0.,4.8
1989-08-24T00:03:16.840 ,1,0,0.,4.8,0.,4.8,0.,4.8,0.,4.8
1989-08-24T00:03:21.640 ,1,0,0.,4.8,0.,4.8,0.,4.8,0.,4.8
1989-08-24T00:03:26.440 ,1,0,0.,4.8,0.,4.8,0.,4.8,0.,4.8
1989-08-24T00:03:31.240 ,1,0,0.,4.8,0.,4.8,0.,4.8,0.,4.8
1989-08-24T00:03:36.040 ,1,0,0.,4.8,0.,4.8,0.,4.8,0.,4.8
1989-08-24T00:03:40.840 ,1,0,0.,4.8,0.,4.8,0.,4.8,0.,4.8
1989-08-24T00:03:45.640 ,1,0,0.,4.8,0.,4.8,0.,4.8,0.,4.8
1989-08-24T00:03:50.440 ,1,0,0.,4.8,0.,4.8,0.,4.8,0.,4.8
1989-08-24T00:03:55.240 ,1,0,0.,4.8,0.,4.8,0.,4.8,0.,4.8
1989-08-24T00:04:00.040 ,0,0,0.,4.8,0.,4.8,0.,4.8,0.,4.8
1989-08-24T00:04:04.840 ,0,0,0.,4.8,0.,4.8,0.,4.8,0.,4.8
1989-08-24T00:04:09.640 ,0,0,0.,4.8,0.,4.8,0.,4.8,0.,4.8
1989-08-24T00:04:14.440 ,0,0,0.,4.8,0.,4.8,0.,4.8,0.,4.8
1989-08-24T00:04:19.240 ,0,0,0.,4.8,0.,4.8,0.,4.8,0.,4.8
1989-08-24T00:04:24.040 ,0,0,0.,4.8,0.,4.8,0.,4.8,0.,4.8
1989-08-24T00:04:28.840 ,0,0,0.,4.8,0.,4.8,0.,4.8,0.,4.8
1989-08-24T00:04:33.640 ,0,0,0.,4.8,0.,4.8,0.,4.8,0.,4.8
1989-08-24T00:04:38.440 ,0,0,0.,4.8,0.,4.8,0.,4.8,0.,4.8
1989-08-24T00:04:43.240 ,0,0,0.,4.8,0.,4.8,0.,4.8,0.,4.8
1989-08-24T00:04:48.040 ,0,0,0.,4.8,0.,4.8,0.,4.8,0.,4.8
1989-08-24T00:04:52.840 ,0,0,0.,4.8,0.,4.8,0.,4.8,0.,4.8
1989-08-24T00:04:57.640 ,0,0,0.,4.8,0.,4.8,0.,4.8,0.,4.8
1989-08-24T00:05:02.440 ,0,0,0.,4.8,0.,4.8,0.,4.8,0.,4.8
1989-08-24T00:05:07.240 ,0,0,0.,4.8,0.,4.8,0.,4.8,0.,4.8
1989-08-24T00:05:12.040 ,0,0,0.,4.8,0.,4.8,0.,4.8,0.,4.8
1989-08-24T00:05:16.840 ,0,0,0.,4.8,0.,4.8,0.,4.8,0.,4.8
1989-08-24T00:05:21.640 ,0,0,0.,4.8,0.,4.8,0.,4.8,0.,4.8
1989-08-24T00:05:26.440 ,0,0,0.,4.8,0.,4.8,0.,4.8,0.,4.8
1989-08-24T00:05:31.240 ,0,0,0.,4.8,0.,4.8,0.,4.8,0.,4.8
1989-08-24T00:05:36.040 ,1,0,0.,4.8,0.,4.8,0.,4.8,0.,4.8
1989-08-24T00:05:40.840 ,1,0,0.,4.8,0.,4.8,0.,4.8,0.,4.8
1989-08-24T00:05:45.640 ,1,0,,0,,0,,0,,0
1989-08-24T00:05:50.440 ,1,0,0.,4.8,0.,4.8,0.,4.8,0.,4.8
1989-08-24T00:05:55.240 ,1,0,0.,4.8,0.,4.8,0.,4.8,0.,4.8
1989-08-24T00:06:00.040 ,1,0,0.,4.8,0.,4.8,0.,4.8,0.,4.8
1989-08-24T00:06:04.840 ,1,0,0.,4.8,0.,4.8,0.,4.8,0.,4.8
1989-08-24T00:06:09.640 ,1,0,0.,4.8,0.,4.8,0.,4.8,0.,4.8
1989-08-24T00:06:14.440 ,1,0,0.,4.8,0.,4.8,0.,4.8,0.,4.8
1989-08-24T00:06:19.240 ,1,0,0.,4.8,0.,4.8,0.,4.8,0.,4.8
1989-08-24T00:06:24.040 ,2,0,0.,4.8,0.,4.8,0.,4.8,0.,4.8
1989-08-24T00:06:28.840 ,2,0,0.,4.8,0.,4.8,0.,4.8,0.,4.8
1989-08-24T00:06:33.640 ,2,0,0.,4.8,0.,4.8,0.,4.8,0.,4.8
1989-08-24T00:06:38.440 ,2,0,0.,4.8,0.,4.8,0.,4.8,0.,4.8
1989-08-24T00:06:43.240 ,2,0,0.,4.8,0.,4.8,0.,4.8,0.,4.8
1989-08-24T00:06:48.040 ,2,0,0.,4.8,0.,4.8,0.,4.8,0.,4.8
1989-08-24T00:06:52.840 ,2,0,0.,4.8,0.,4.8,0.,4.8,0.,4.8
1989-08-24T00:06:57.640 ,2,0,0.,4.8,0.,4.8,0.,4.8,0.,4.8
1989-08-24T00:07:02.440 ,2,0,0.,4.8,0.,4.8,0.,4.8,0.,4.8
1989-08-24T00:07:07.240 ,2,0,0.,4.8,0.,4.8,0.,4.8,0.,4.8
1989-08-24T00:07:12.040 ,3,0,0.,4.8,0.,4.8,0.,4.8,0.,4.8
1989-08-24T00:07:16.840 ,3,0,0.,4.8,0.,4.8,0.,4.8,0.,4.8
1989-08-24T00:07:21.640 ,3,0,0.,4.8,0.,4.8,0.,4.8,0.,4.8
1989-08-24T00:07:26.440 ,3,0,0.,4.8,0.,4.8,0.,4.8,0.,4.8
1989-08-24T00:07:31.240 ,3,0,0.,4.8,0.,4.8,0.,4.8,0.,4.8
1989-08-24T00:07:36.040 ,3,0,0.,4.8,0.,4.8,0.,4.8,0.,4.8
1989-08-24T00:07:40.840 ,3,0,0.,4.8,0.,4.8,0.,4.8,0.,4.8
1989-08-24T00:07:45.640 ,3,0,0.,4.8,0.,4.8,0.,4.8,0.,4.8
1989-08-24T00:07:50.440 ,3,0,0.,4.8,0.,4.8,0.,4.8,0.,4.8
1989-08-24T00:07:55.240 ,3,0,0.,4.8,0.,4.8,0.,4.8,0.,4.8
1989-08-24T00:08:00.040 ,4,0,0.,4.8,0.,4.8,0.,4.8,0.,4.8
1989-08-24T00:08:04.840 ,4,0,0.,4.8,0.,4.8,0.,4.8,0.,4.8
1989-08-24T00:08:09.640 ,4,0,0.,4.8,0.,4.8,0.,4.8,0.,4.8
1989-08-24T00:08:14.440 ,4,0,0.,4.8,0.,4.8,0.,4.8,0.,4.8
1989-08-24T00:08:19.240 ,4,0,0.,4.8,0.,4.8,0.,4.8,0.,4.8
1989-08-24T00:08:24.040 ,4,0,0.,4.8,0.,4.8,0.,4.8,0.,4.8
1989-08-24T00:08:28.840 ,4,0,0.,4.8,0.,4.8,0.,4.8,0.,4.8
1989-08-24T00:08:33.640 ,4,0,0.,4.8,0.,4.8,0.,4.8,0.,4.8
1989-08-24T00:08:38.440 ,4,0,0.,4.8,0.,4.8,0.,4.8,0.,4.8
1989-08-24T00:08:43.240 ,4,0,0.,4.8,0.,4.8,0.,4.8,0.,4.8
1989-08-24T00:08:48.040 ,5,0,0.,4.8,0.,4.8,0.,4.8,0.,4.8
1989-08-24T00:08:52.840 ,5,0,0.,4.8,0.,4.8,0.,4.8,0.,4.8
1989-08-24T00:08:57.640 ,5,0,0.,4.8,0.,4.8,0.,4.8,0.,4.8
1989-08-24T00:09:02.440 ,5,0,0.,4.8,0.,4.8,0.,4.8,0.,4.8
1989-08-24T00:09:07.240 ,5,0,0.,4.8,0.,4.8,0.,4.8,0.,4.8
1989-08-24T00:09:12.040 ,5,0,0.,4.8,0.,4.8,0.,4.8,0.,4.8
1989-08-24T00:09:16.840 ,5,0,0.,4.8,0.,4.8,0.,4.8,0.,4.8
1989-08-24T00:09:21.640 ,5,0,0.,4.8,0.,4.8,0.,4.8,0.,4.8
1989-08-24T00:09:26.440 ,5,0,0.,4.8,0.,4.8,0.,4.8,0.,4.8
1989-08-24T00:09:31.240 ,5,0,0.,4.8,0.,4.8,0.,4.8,0.,4.8
1989-08-24T00:09:36.040 ,6,0,0.,4.8,0.,4.8,0.,4.8,0.,4.8
1989-08-24T00:09:40.840 ,6,0,0.,4.8,0.,4.8,0.,4.8,0.,4.8
1989-08-24T00:09:45.640 ,6,0,0.,4.8,0.,4.8,0.,4.8,0.,4.8
1989-08-24T00:09:50.440 ,6,0,0.,4.8,0.,4.8,0.,4.8,0.,4.8
1989-08-24T00:09:55.240 ,6,0,0.,4.8,0.,4.8,0.,4.8,0.,4.8
1989-08-24T00:10:00.040 ,6,0,0.,4.8,0.,4.8,0.,4.8,0.,4.8
1989-08-24T00:10:04.840 ,6,0,0.,4.8,0.,4.8,0.,4.8,0.,4.8
1989-08-24T00:10:09.640 ,6,0,0.,4.8,0.,4.8,0.,4.8,0.,4.8
1989-08-24T00:10:14.440 ,6,0,0.,4.8,0.,4.8,0.,4.8,0.,4.8
1989-08-24T00:10:19.240 ,6,0,0.,4.8,0.,4.8,0.,4.8,0.,4.8
1989-08-24T00:10:24.040 ,7,0,0.,4.8,0.,4.8,0.,4.8,0.,4.8
1989-08-24T00:10:28.840 ,7,0,0.,4.8,0.,4.8,0.,4.8,0.,4.8
1989-08-24T00:10:33.640 ,7,0,0.,4.8,0.,4.8,0.,4.8,0.,4.8
1989-08-24T00:10:38.440 ,7,0,0.,4.8,0.,4.8,0.,4.8,0.,4.8
1989-08-24T00:10:43.240 ,7,0,0.,4.8,0.,4.8,0.,4.8,0.,4.8
1989-08-24T00:10:48.040 ,7,0,0.,4.8,0.,4.8,0.,4.8,0.,4.8
1989-08-24T00:10:52.840 ,7,0,0.,4.8,0.,4.8,0.,4.8,0.,4.8
1989-08-24T00:10:57.640 ,7,0,0.,4.8,0.,4.8,0.,4.8,0.,4.8
1989-08-24T00:11:02.440 ,7,0,0.,4.8,0.,4.8,0.,4.8,0.,4.8
1989-08-24T00:11:07.240 ,7,0,0.,4.8,0.,4.8,0.,4.8,0.,4.8
1989-08-24T00:11:12.040 ,7,0,0.,4.8,0.,4.8,0.,4.8,0.,4.8
1989-08-24T00:11:16.840 ,7,0,0.,4.8,0.,4.8,0.,4.8,0.,4.8
1989-08-24T00:11:21.640 ,7,0,0.,4.8,0.,4.8,0.,4.8,0.,4.8
1989-08-24T00:11:26.440 ,7,0,0.,4.8,0.,4.8,0.,4.8,0.,4.8
1989-08-24T00:11:31.240 ,7,0,0.,4.8,0.,4.8,0.,4.8,0.,4.8
1989-08-24T00:11:36.040 ,7,0,0.,4.8,0.,4.8,0.,4.8,0.,4.8
1989-08-24T00:11:40.840 ,7,0,0.,4.8,0.,4.8,0.,4.8,0.,4.8
1989-08-24T00:11:45.640 ,7,0,0.,4.8,0.,4.8,0.,4.8,0.,4.8
1989-08-24T00:11:50.440 ,7,0,0.,4.8,0.,4.8,0.,4.8,0.,4.8
1989-08-24T00:11:55.240 ,7,0,0.,4.8,0.,4.8,0.,4.8,0.,4.8
1989-08-24T00:12:00.040 ,6,0,0.,4.8,0.,4.8,0.,4.8,0.,4.8
1989-08-24T00:12:04.840 ,6,0,0.,4.8,0.,4.8,0.,4.8,0.,4.8
1989-08-24T00:12:09.640 ,6,0,0.,4.8,0.,4.8,0.,4.8,0.,4.8
1989-08-24T00:12:14.440 ,6,0,0.,4.8,0.,4.8,0.,4.8,0.,4.8
1989-08-24T00:12:19.240 ,6,0,0.,4.8,0.,4.8,0.,4.8,0.,4.8
1989-08-24T00:12:24.040 ,6,0,0.,4.8,0.,4.8,0.,4.8,0.,4.8
1989-08-24T00:12:28.840 ,6,0,0.,4.8,0.,4.8,0.,4.8,0.,4.8
1989-08-24T00:12:33.640 ,6,0,0.,4.8,0.,4.8,0.,4.8,0.,4.8
1989-08-24T00:12:38.440 ,6,0,0.,4.8,0.,4.8,0.,4.8,0.,4.8
1989-08-24T00:12:43.240 ,6,0,0.,4.8,0.,4.8,0.,4.8,0.,4.8
1989-08-24T00:12:48.040 ,5,0,0.,4.8,0.,4.8,0.,4.8,0.,4.8
1989-08-24T00:12:52.840 ,5,0,0.,4.8,0.,4.8,0.,4.8,0.,4.8
1989-08-24T00:12:57.640 ,5,0,0.,4.8,0.,4.8,0.,4.8,0.,4.8
1989-08-24T00:13:02.440 ,5,0,0.,4.8,0.,4.8,0.,4.8,0.,4.8
1989-08-24T00:13:07.240 ,5,0,0.,4.8,0.,4.8,0.,4.8,0.,4.8
1989-08-24T00:13:12.040 ,5,0,0.,4.8,0.,4.8,0.,4.8,0.,4.8
1989-08-24T00:13:16.840 ,5,0,0.,4.8,0.,4.8,0.,4.8,0.,4.8
1989-08-24T00:13:21.640 ,5,0,0.,4.8,0.,4.8,0.,4.8,0.,4.8
1989-08-24T00:13:26.440 ,5,0,0.,4.8,0.,4.8,0.,4.8,0.,4.8
1989-08-24T00:13:31.240 ,5,0,0.,4.8,0.,4.8,0.,4.8,0.,4.8
1989-08-24T00:13:36.040 ,4,0,0.,4.8,0.,4.8,0.,4.8,0.,4.8
1989-08-24T00:13:40.840 ,4,0,0.,4.8,0.,4.8,0.,4.8,0.,4.8
1989-08-24T00:13:45.640 ,4,0,0.,4.8,0.,4.8,0.,4.8,0.,4.8
1989-08-24T00:13:50.440 ,4,0,0.,4.8,0.,4.8,0.,4.8,0.,4.8
1989-08-24T00:13:55.240 ,4,0,0.,4.8,0.,4.8,0.,4.8,0.,4.8
1989-08-24T00:14:00.040 ,4,0,0.,4.8,0.,4.8,0.,4.8,0.,4.8
1989-08-24T00:14:04.840 ,4,0,0.,4.8,0.,4.8,0.,4.8,0.,4.8
1989-08-24T00:14:09.640 ,4,0,0.,4.8,0.,4.8,0.,4.8,0.,4.8
1989-08-24T00:14:14.440 ,4,0,0.,4.8,0.,4.8,0.,4.8,0.,4.8
1989-08-24T00:14:19.240 ,4,0,0.,4.8,0.,4.8,0.,4.8,0.,4.8
1989-08-24T00:14:24.040 ,3,0,0.,4.8,0.,4.8,0.,4.8,0.,4.8
1989-08-24T00:14:28.840 ,3,0,0.,4.8,0.,4.8,0.,4.8,0.,4.8
1989-08-24T00:14:33.640 ,3,0,0.,4.8,0.,4.8,0.,4.8,0.,4.8
1989-08-24T00:14:38.440 ,3,0,0.,4.8,0.,4.8,0.,4.8,0.,4.8
1989-08-24T00:14:43.240 ,3,0,0.,4.8,0.,4.8,0.,4.8,0.,4.8
1989-08-24T00:14:48.040 ,3,0,0.,4.8,0.,4.8,0.,4.8,0.,4.8
1989-08-24T00:14:52.840 ,3,0,0.,4.8,0.,4.8,0.,4.8,0.,4.8
1989-08-24T00:14:57.640 ,3,0,0.,4.8,0.,4.8,0.,4.8,0.,4.8
1989-08-24T00:15:02.440 ,3,0,0.,4.8,0.,4.8,0.,4.8,0.,4.8
1989-08-24T00:15:07.240 ,3,0,0.,4.8,0.,4.8,0.,4.8,0.,4.8
1989-08-24T00:15:12.040 ,2,0,0.,4.8,0.,4.8,0.,4.8,0.,4.8
1989-08-24T00:15:16.840 ,2,0,0.,4.8,0.,4.8,0.,4.8,0.,4.8
1989-08-24T00:15:21.640 ,2,0,0.,4.8,0.,4.8,0.,4.8,0.,4.8
1989-08-24T00:15:26.440 ,2,0,0.,4.8,0.,4.8,0.,4.8,0.,4.8
1989-08-24T00:15:31.240 ,2,0,0.,4.8,0.,4.8,0.,4.8,0.,4.8
1989-08-24T00:15:36.040 ,2,0,0.,4.8,0.,4.8,0.,4.8,0.,4.8
1989-08-24T00:15:40.840 ,2,0,0.,4.8,0.,4.8,0.,4.8,0.,4.8
1989-08-24T00:15:45.640 ,2,0,0.,4.8,0.,4.8,0.,4.8,0.,4.8
1989-08-24T00:15:50.440 ,2,0,0.,4.8,0.,4.8,0.,4.8,0.,4.8
1989-08-24T00:15:55.240 ,2,0,0.,4.8,0.,4.8,0.,4.8,0.,4.8
1989-08-24T00:16:00.040 ,1,0,0.,4.8,0.,4.8,0.,4.8,0.,4.8
1989-08-24T00:16:04.840 ,1,0,0.,4.8,0.,4.8,0.,4.8,0.,4.8
1989-08-24T00:16:09.640 ,1,0,0.,4.8,0.,4.8,0.,4.8,0.,4.8
1989-08-24T00:16:14.440 ,1,0,0.,4.8,0.,4.8,0.,4.8,0.,4.8
1989-08-24T00:16:19.240 ,1,0,0.,4.8,0.,4.8,0.,4.8,0.,4.8
1989-08-24T00:16:24.040 ,1,0,0.,4.8,0.,4.8,0.,4.8,0.,4.8
1989-08-24T00:16:28.840 ,1,0,0.,4.8,0.,4.8,0.,4.8,0.,4.8
1989-08-24T00:16:33.640 ,1,0,0.,4.8,0.,4.8,0.,4.8,0.,4.8
1989-08-24T00:16:38.440 ,1,0,0.,4.8,0.,4.8,0.,4.8,0.,4.8
1989-08-24T00:16:43.240 ,1,0,0.,4.8,0.,4.8,0.,4.8,0.,4.8
1989-08-24T00:16:48.040 ,0,0,0.,4.8,0.,4.8,0.,4.8,1.,4.8
1989-08-24T00:16:52.840 ,0,0,0.,4.8,0.,4.8,0.,4.8,0.,4.8
1989-08-24T00:16:57.640 ,0,0,0.,4.8,0.,4.8,0.,4.8,0.,4.8
1989-08-24T00:17:02.440 ,0,0,0.,4.8,0.,4.8,0.,4.8,0.,4.8
1989-08-24T00:17:07.240 ,0,0,0.,4.8,0.,4.8,0.,4.8,0.,4.8
1989-08-24T00:17:12.040 ,0,0,0.,4.8,0.,4.8,0.,4.8,0.,4.8
1989-08-24T00:17:16.840 ,0,0,0.,4.8,0.,4.8,0.,4.8,0.,4.8
1989-08-24T00:17:21.640 ,0,0,0.,4.8,0.,4.8,0.,4.8,0.,4.8
1989-08-24T00:17:26.440 ,0,0,0.,4.8,0.,4.8,0.,4.8,0.,4.8
1989-08-24T00:17:31.240 ,0,0,0.,4.8,0.,4.8,0.,4.8,0.,4.8
1989-08-24T00:17:36.040 ,0,0,0.,4.8,0.,4.8,0.,4.8,0.,4.8
1989-08-24T00:17:40.840 ,0,0,0.,4.8,0.,4.8,0.,4.8,0.,4.8
1989-08-24T00:17:45.640 ,0,0,0.,4.8,0.,4.8,0.,4.8,0.,4.8
1989-08-24T00:17:50.440 ,0,0,0.,4.8,0.,4.8,0.,4.8,0.,4.8
1989-08-24T00:17:55.240 ,0,0,0.,4.8,0.,4.8,0.,4.8,0.,4.8
1989-08-24T00:18:00.040 ,0,0,0.,4.8,0.,4.8,0.,4.8,0.,4.8
1989-08-24T00:18:04.840 ,0,0,0.,4.8,0.,4.8,0.,4.8,0.,4.8
1989-08-24T00:18:09.640 ,0,0,0.,4.8,0.,4.8,0.,4.8,0.,4.8
1989-08-24T00:18:14.440 ,0,0,0.,4.8,0.,4.8,0.,4.8,0.,4.8
1989-08-24T00:18:19.240 ,0,0,0.,4.8,0.,4.8,0.,4.8,0.,4.8
1989-08-24T00:18:24.040 ,1,0,0.,4.8,0.,4.8,0.,4.8,0.,4.8
1989-08-24T00:18:28.840 ,1,0,0.,4.8,0.,4.8,0.,4.8,0.,4.8
1989-08-24T00:18:33.640 ,1,0,0.,4.8,0.,4.8,0.,4.8,0.,4.8
1989-08-24T00:18:38.440 ,1,0,0.,4.8,0.,4.8,0.,4.8,0.,4.8
1989-08-24T00:18:43.240 ,1,0,0.,4.8,0.,4.8,0.,4.8,0.,4.8
1989-08-24T00:18:48.040 ,1,0,0.,4.8,0.,4.8,0.,4.8,0.,4.8
1989-08-24T00:18:52.840 ,1,0,0.,4.8,0.,4.8,0.,4.8,0.,4.8
1989-08-24T00:18:57.640 ,1,0,0.,4.8,0.,4.8,0.,4.8,0.,4.8
1989-08-24T00:19:02.440 ,1,0,0.,4.8,0.,4.8,0.,4.8,0.,4.8
1989-08-24T00:19:07.240 ,1,0,0.,4.8,0.,4.8,0.,4.8,0.,4.8
1989-08-24T00:19:12.040 ,2,0,0.,4.8,0.,4.8,0.,4.8,0.,4.8
1989-08-24T00:19:16.840 ,2,0,0.,4.8,0.,4.8,0.,4.8,0.,4.8
1989-08-24T00:19:21.640 ,2,0,0.,4.8,0.,4.8,0.,4.8,0.,4.8
1989-08-24T00:19:26.440 ,2,0,0.,4.8,0.,4.8,0.,4.8,0.,4.8
1989-08-24T00:19:31.240 ,2,0,0.,4.8,0.,4.8,0.,4.8,0.,4.8
1989-08-24T00:19:36.040 ,2,0,0.,4.8,0.,4.8,0.,4.8,1.,4.8
1989-08-24T00:19:40.840 ,2,0,0.,4.8,0.,4.8,0.,4.8,0.,4.8
1989-08-24T00:19:45.640 ,2,0,0.,4.8,0.,4.8,0.,4.8,0.,4.8
1989-08-24T00:19:50.440 ,2,0,0.,4.8,0.,4.8,0.,4.8,0.,4.8
1989-08-24T00:19:55.240 ,2,0,0.,4.8,0.,4.8,0.,4.8,0.,4.8
1989-08-24T00:20:00.040 ,3,0,0.,4.8,0.,4.8,0.,4.8,0.,4.8
1989-08-24T00:20:04.840 ,3,0,0.,4.8,0.,4.8,0.,4.8,0.,4.8
1989-08-24T00:20:09.640 ,3,0,0.,4.8,0.,4.8,0.,4.8,0.,4.8
1989-08-24T00:20:14.440 ,3,0,0.,4.8,0.,4.8,0.,4.8,0.,4.8
1989-08-24T00:20:19.240 ,3,0,0.,4.8,0.,4.8,0.,4.8,0.,4.8
1989-08-24T00:20:24.040 ,3,0,0.,4.8,0.,4.8,0.,4.8,0.,4.8
1989-08-24T00:20:28.840 ,3,0,0.,4.8,0.,4.8,0.,4.8,0.,4.8
1989-08-24T00:20:33.640 ,3,0,0.,4.8,0.,4.8,0.,4.8,0.,4.8
1989-08-24T00:20:38.440 ,3,0,0.,4.8,0.,4.8,0.,4.8,0.,4.8
1989-08-24T00:20:43.240 ,3,0,0.,4.8,0.,4.8,0.,4.8,0.,4.8
1989-08-24T00:20:48.040 ,4,0,0.,4.8,0.,4.8,0.,4.8,0.,4.8
1989-08-24T00:20:52.840 ,4,0,0.,4.8,0.,4.8,0.,4.8,0.,4.8
1989-08-24T00:20:57.640 ,4,0,0.,4.8,0.,4.8,0.,4.8,0.,4.8
1989-08-24T00:21:02.440 ,4,0,0.,4.8,0.,4.8,0.,4.8,0.,4.8
1989-08-24T00:21:07.240 ,4,0,0.,4.8,0.,4.8,0.,4.8,0.,4.8
1989-08-24T00:21:12.040 ,4,0,0.,4.8,0.,4.8,0.,4.8,0.,4.8
1989-08-24T00:21:16.840 ,4,0,0.,4.8,0.,4.8,0.,4.8,0.,4.8
1989-08-24T00:21:21.640 ,4,0,0.,4.8,0.,4.8,0.,4.8,0.,4.8
1989-08-24T00:21:26.440 ,4,0,0.,4.8,0.,4.8,0.,4.8,0.,4.8
1989-08-24T00:21:31.240 ,4,0,0.,4.8,0.,4.8,0.,4.8,1.,4.8
1989-08-24T00:21:36.040 ,5,0,0.,4.8,0.,4.8,0.,4.8,0.,4.8
1989-08-24T00:21:40.840 ,5,0,0.,4.8,0.,4.8,0.,4.8,0.,4.8
1989-08-24T00:21:45.640 ,5,0,0.,4.8,0.,4.8,0.,4.8,0.,4.8
1989-08-24T00:21:50.440 ,5,0,0.,4.8,0.,4.8,0.,4.8,0.,4.8
1989-08-24T00:21:55.240 ,5,0,0.,4.8,0.,4.8,0.,4.8,0.,4.8
1989-08-24T00:22:00.040 ,5,0,0.,4.8,0.,4.8,0.,4.8,0.,4.8
1989-08-24T00:22:04.840 ,5,0,0.,4.8,0.,4.8,0.,4.8,0.,4.8
1989-08-24T00:22:09.640 ,5,0,0.,4.8,0.,4.8,0.,4.8,0.,4.8
1989-08-24T00:22:14.440 ,5,0,0.,4.8,0.,4.8,0.,4.8,0.,4.8
1989-08-24T00:22:19.240 ,5,0,0.,4.8,0.,4.8,0.,4.8,0.,4.8
1989-08-24T00:22:24.040 ,6,0,0.,4.8,0.,4.8,0.,4.8,0.,4.8
1989-08-24T00:22:28.840 ,6,0,0.,4.8,0.,4.8,0.,4.8,0.,4.8
1989-08-24T00:22:33.640 ,6,0,0.,4.8,0.,4.8,0.,4.8,0.,4.8
1989-08-24T00:22:38.440 ,6,0,0.,4.8,0.,4.8,0.,4.8,0.,4.8
1989-08-24T00:22:43.240 ,6,0,0.,4.8,0.,4.8,0.,4.8,0.,4.8
1989-08-24T00:22:48.040 ,6,0,0.,4.8,0.,4.8,0.,4.8,0.,4.8
1989-08-24T00:22:52.840 ,6,0,0.,4.8,0.,4.8,0.,4.8,0.,4.8
1989-08-24T00:22:57.640 ,6,0,0.,4.8,0.,4.8,0.,4.8,0.,4.8
1989-08-24T00:23:02.440 ,6,0,0.,4.8,0.,4.8,0.,4.8,0.,4.8
1989-08-24T00:23:07.240 ,6,0,0.,4.8,0.,4.8,0.,4.8,0.,4.8
1989-08-24T00:23:12.040 ,7,0,0.,4.8,0.,4.8,0.,4.8,0.,4.8
1989-08-24T00:23:16.840 ,7,0,0.,4.8,0.,4.8,0.,4.8,0.,4.8
1989-08-24T00:23:21.640 ,7,0,0.,4.8,0.,4.8,0.,4.8,0.,4.8
1989-08-24T00:23:26.440 ,7,0,0.,4.8,0.,4.8,0.,4.8,0.,4.8
1989-08-24T00:23:31.240 ,7,0,0.,4.8,0.,4.8,0.,4.8,0.,4.8
1989-08-24T00:23:36.040 ,7,0,0.,4.8,0.,4.8,0.,4.8,0.,4.8
1989-08-24T00:23:40.840 ,7,0,0.,4.8,0.,4.8,0.,4.8,0.,4.8
1989-08-24T00:23:45.640 ,7,0,0.,4.8,0.,4.8,0.,4.8,0.,4.8
1989-08-24T00:23:50.440 ,7,0,0.,4.8,0.,4.8,0.,4.8,0.,4.8
1989-08-24T00:23:55.240 ,7,0,0.,4.8,0.,4.8,0.,4.8,0.,4.8
1989-08-24T00:24:00.040 ,7,0,0.,4.8,0.,4.8,0.,4.8,0.,4.8
1989-08-24T00:24:04.840 ,7,0,0.,4.8,0.,4.8,0.,4.8,0.,4.8
1989-08-24T00:24:09.640 ,7,0,0.,4.8,0.,4.8,0.,4.8,0.,4.8
1989-08-24T00:24:14.440 ,7,0,0.,4.8,0.,4.8,0.,4.8,0.,4.8
1989-08-24T00:24:19.240 ,7,0,0.,4.8,0.,4.8,0.,4.8,0.,4.8
1989-08-24T00:24:24.040 ,7,0,0.,4.8,0.,4.8,0.,4.8,0.,4.8
1989-08-24T00:24:28.840 ,7,0,0.,4.8,0.,4.8,0.,4.8,0.,4.8
1989-08-24T00:24:33.640 ,7,0,0.,4.8,0.,4.8,0.,4.8,0.,4.8
1989-08-24T00:24:38.440 ,7,0,0.,4.8,0.,4.8,0.,4.8,0.,4.8
1989-08-24T00:24:43.240 ,7,0,0.,4.8,0.,4.8,0.,4.8,0.,4.8
1989-08-24T00:24:48.040 ,6,0,0.,4.8,0.,4.8,0.,4.8,0.,4.8
1989-08-24T00:24:52.840 ,6,0,0.,4.8,0.,4.8,0.,4.8,0.,4.8
1989-08-24T00:24:57.640 ,6,0,0.,4.8,0.,4.8,0.,4.8,0.,4.8
1989-08-24T00:25:02.440 ,6,0,0.,4.8,0.,4.8,0.,4.8,0.,4.8
1989-08-24T00:25:07.240 ,6,0,0.,4.8,0.,4.8,0.,4.8,0.,4.8
1989-08-24T00:25:12.040 ,6,0,0.,4.8,0.,4.8,0.,4.8,0.,4.8
1989-08-24T00:25:16.840 ,6,0,0.,4.8,0.,4.8,0.,4.8,0.,4.8
1989-08-24T00:25:21.640 ,6,0,0.,4.8,0.,4.8,0.,4.8,0.,4.8
1989-08-24T00:25:26.440 ,6,0,0.,4.8,0.,4.8,0.,4.8,0.,4.8
1989-08-24T00:25:31.240 ,6,0,0.,4.8,0.,4.8,0.,4.8,0.,4.8
1989-08-24T00:25:36.040 ,5,0,0.,4.8,0.,4.8,0.,4.8,0.,4.8
1989-08-24T00:25:40.840 ,5,0,0.,4.8,0.,4.8,0.,4.8,0.,4.8
1989-08-24T00:25:45.640 ,5,0,0.,4.8,0.,4.8,0.,4.8,0.,4.8
1989-08-24T00:25:50.440 ,5,0,0.,4.8,0.,4.8,0.,4.8,0.,4.8
1989-08-24T00:25:55.240 ,5,0,0.,4.8,0.,4.8,0.,4.8,0.,4.8
1989-08-24T00:26:00.040 ,5,0,0.,4.8,0.,4.8,0.,4.8,0.,4.8
1989-08-24T00:26:04.840 ,5,0,0.,4.8,0.,4.8,0.,4.8,0.,4.8
1989-08-24T00:26:09.640 ,5,0,0.,4.8,0.,4.8,0.,4.8,0.,4.8
1989-08-24T00:26:14.440 ,5,0,0.,4.8,0.,4.8,0.,4.8,0.,4.8
1989-08-24T00:26:19.240 ,5,0,0.,4.8,0.,4.8,0.,4.8,0.,4.8
1989-08-24T00:26:24.040 ,4,0,0.,4.8,0.,4.8,0.,4.8,0.,4.8
1989-08-24T00:26:28.840 ,4,0,0.,4.8,0.,4.8,0.,4.8,0.,4.8
1989-08-24T00:26:33.640 ,4,0,0.,4.8,0.,4.8,0.,4.8,0.,4.8
1989-08-24T00:26:38.440 ,4,0,0.,4.8,0.,4.8,0.,4.8,0.,4.8
1989-08-24T00:26:43.240 ,4,0,0.,4.8,0.,4.8,0.,4.8,0.,4.8
1989-08-24T00:26:48.040 ,4,0,0.,4.8,0.,4.8,0.,4.8,0.,4.8
1989-08-24T00:26:52.840 ,4,0,0.,4.8,0.,4.8,0.,4.8,0.,4.8
1989-08-24T00:26:57.640 ,4,0,0.,4.8,0.,4.8,0.,4.8,0.,4.8
1989-08-24T00:27:02.440 ,4,0,0.,4.8,0.,4.8,0.,4.8,0.,4.8
1989-08-24T00:27:07.240 ,4,0,0.,4.8,0.,4.8,0.,4.8,0.,4.8
1989-08-24T00:27:12.040 ,3,0,0.,4.8,0.,4.8,0.,4.8,0.,4.8
1989-08-24T00:27:16.840 ,3,0,0.,4.8,0.,4.8,0.,4.8,0.,4.8
1989-08-24T00:27:21.640 ,3,0,0.,4.8,0.,4.8,0.,4.8,0.,4.8
1989-08-24T00:27:26.440 ,3,0,0.,4.8,0.,4.8,0.,4.8,0.,4.8
1989-08-24T00:27:31.240 ,3,0,0.,4.8,0.,4.8,0.,4.8,0.,4.8
1989-08-24T00:27:36.040 ,3,0,0.,4.8,0.,4.8,0.,4.8,0.,4.8
1989-08-24T00:27:40.840 ,3,0,0.,4.8,0.,4.8,0.,4.8,0.,4.8
1989-08-24T00:27:45.640 ,3,0,0.,4.8,0.,4.8,0.,4.8,0.,4.8
1989-08-24T00:27:50.440 ,3,0,0.,4.8,0.,4.8,0.,4.8,0.,4.8
1989-08-24T00:27:55.240 ,3,0,0.,4.8,0.,4.8,0.,4.8,0.,4.8
1989-08-24T00:28:00.040 ,2,0,0.,4.8,0.,4.8,0.,4.8,0.,4.8
1989-08-24T00:28:04.840 ,2,0,0.,4.8,0.,4.8,0.,4.8,0.,4.8
1989-08-24T00:28:09.640 ,2,0,0.,4.8,0.,4.8,0.,4.8,0.,4.8
1989-08-24T00:28:14.440 ,2,0,0.,4.8,0.,4.8,0.,4.8,0.,4.8
1989-08-24T00:28:19.240 ,2,0,0.,4.8,0.,4.8,0.,4.8,0.,4.8
1989-08-24T00:28:24.040 ,2,0,0.,4.8,0.,4.8,0.,4.8,0.,4.8
1989-08-24T00:28:28.840 ,2,0,0.,4.8,0.,4.8,0.,4.8,0.,4.8
1989-08-24T00:28:33.640 ,2,0,0.,4.8,0.,4.8,0.,4.8,0.,4.8
1989-08-24T00:28:38.440 ,2,0,0.,4.8,0.,4.8,0.,4.8,0.,4.8
1989-08-24T00:28:43.240 ,2,0,0.,4.8,0.,4.8,0.,4.8,0.,4.8
1989-08-24T00:28:48.040 ,1,0,0.,4.8,0.,4.8,0.,4.8,0.,4.8
1989-08-24T00:28:52.840 ,1,0,0.,4.8,0.,4.8,0.,4.8,0.,4.8
1989-08-24T00:28:57.640 ,1,0,0.,4.8,0.,4.8,0.,4.8,0.,4.8
1989-08-24T00:29:02.440 ,1,0,0.,4.8,0.,4.8,0.,4.8,0.,4.8
1989-08-24T00:29:07.240 ,1,0,0.,4.8,0.,4.8,0.,4.8,0.,4.8
1989-08-24T00:29:12.040 ,1,0,0.,4.8,0.,4.8,0.,4.8,0.,4.8
1989-08-24T00:29:16.840 ,1,0,0.,4.8,0.,4.8,0.,4.8,0.,4.8
1989-08-24T00:29:21.640 ,1,0,0.,4.8,0.,4.8,0.,4.8,0.,4.8
1989-08-24T00:29:26.440 ,1,0,0.,4.8,0.,4.8,0.,4.8,0.,4.8
1989-08-24T00:29:31.240 ,1,0,0.,4.8,0.,4.8,0.,4.8,0.,4.8
1989-08-24T00:29:36.040 ,0,0,0.,4.8,0.,4.8,0.,4.8,0.,4.8
1989-08-24T00:29:40.840 ,0,0,0.,4.8,0.,4.8,0.,4.8,0.,4.8
1989-08-24T00:29:45.640 ,0,0,0.,4.8,0.,4.8,0.,4.8,0.,4.8
1989-08-24T00:29:50.440 ,0,0,0.,4.8,0.,4.8,0.,4.8,0.,4.8
1989-08-24T00:29:55.240 ,0,0,0.,4.8,0.,4.8,0.,4.8,0.,4.8
1989-08-24T00:30:00.040 ,0,0,0.,4.8,0.,4.8,0.,4.8,0.,4.8
1989-08-24T00:30:04.840 ,0,0,0.,4.8,0.,4.8,0.,4.8,0.,4.8
1989-08-24T00:30:09.640 ,0,0,0.,4.8,0.,4.8,0.,4.8,0.,4.8
1989-08-24T00:30:14.440 ,0,0,0.,4.8,0.,4.8,0.,4.8,0.,4.8
1989-08-24T00:30:19.240 ,0,0,0.,4.8,0.,4.8,0.,4.8,0.,4.8
1989-08-24T00:30:24.040 ,0,0,0.,4.8,0.,4.8,0.,4.8,0.,4.8
1989-08-24T00:30:28.840 ,0,0,0.,4.8,0.,4.8,0.,4.8,0.,4.8
1989-08-24T00:30:33.640 ,0,0,0.,4.8,0.,4.8,0.,4.8,1.,4.8
1989-08-24T00:30:38.440 ,0,0,0.,4.8,0.,4.8,0.,4.8,0.,4.8
1989-08-24T00:30:43.240 ,0,0,0.,4.8,0.,4.8,0.,4.8,0.,4.8
1989-08-24T00:30:48.040 ,0,0,0.,4.8,0.,4.8,0.,4.8,0.,4.8
1989-08-24T00:30:52.840 ,0,0,0.,4.8,0.,4.8,0.,4.8,0.,4.8
1989-08-24T00:30:57.640 ,0,0,0.,4.8,0.,4.8,0.,4.8,0.,4.8
1989-08-24T00:31:02.440 ,0,0,0.,4.8,0.,4.8,0.,4.8,0.,4.8
1989-08-24T00:31:07.240 ,0,0,0.,4.8,0.,4.8,0.,4.8,0.,4.8
1989-08-24T00:31:12.040 ,1,0,0.,4.8,0.,4.8,0.,4.8,0.,4.8
1989-08-24T00:31:16.840 ,1,0,0.,4.8,0.,4.8,0.,4.8,0.,4.8
1989-08-24T00:31:21.640 ,1,0,0.,4.8,0.,4.8,0.,4.8,0.,4.8
1989-08-24T00:31:26.440 ,1,0,0.,4.8,0.,4.8,0.,4.8,0.,4.8
1989-08-24T00:31:31.240 ,1,0,0.,4.8,0.,4.8,0.,4.8,0.,4.8
1989-08-24T00:31:36.040 ,1,0,0.,4.8,0.,4.8,0.,4.8,0.,4.8
1989-08-24T00:31:40.840 ,1,0,0.,4.8,0.,4.8,0.,4.8,0.,4.8
1989-08-24T00:31:45.640 ,1,0,0.,4.8,0.,4.8,0.,4.8,0.,4.8
1989-08-24T00:31:50.440 ,1,0,0.,4.8,0.,4.8,0.,4.8,0.,4.8
1989-08-24T00:31:55.240 ,1,0,0.,4.8,0.,4.8,0.,4.8,0.,4.8
1989-08-24T00:32:00.040 ,2,0,0.,4.8,0.,4.8,0.,4.8,0.,4.8
1989-08-24T00:32:04.840 ,2,0,0.,4.8,0.,4.8,0.,4.8,0.,4.8
1989-08-24T00:32:09.640 ,2,0,0.,4.8,0.,4.8,0.,4.8,0.,4.8
1989-08-24T00:32:14.440 ,2,0,0.,4.8,0.,4.8,0.,4.8,0.,4.8
1989-08-24T00:32:19.240 ,2,0,0.,4.8,0.,4.8,0.,4.8,0.,4.8
1989-08-24T00:32:24.040 ,2,0,0.,4.8,0.,4.8,0.,4.8,0.,4.8
1989-08-24T00:32:28.840 ,2,0,0.,4.8,0.,4.8,0.,4.8,0.,4.8
1989-08-24T00:32:33.640 ,2,0,0.,4.8,0.,4.8,0.,4.8,0.,4.8
1989-08-24T00:32:38.440 ,2,0,0.,4.8,0.,4.8,0.,4.8,0.,4.8
1989-08-24T00:32:43.240 ,2,0,0.,4.8,0.,4.8,0.,4.8,0.,4.8
1989-08-24T00:32:48.040 ,3,0,0.,4.8,0.,4.8,0.,4.8,0.,4.8
1989-08-24T00:32:52.840 ,3,0,0.,4.8,0.,4.8,0.,4.8,0.,4.8
1989-08-24T00:32:57.640 ,3,0,0.,4.8,0.,4.8,0.,4.8,0.,4.8
1989-08-24T00:33:02.440 ,3,0,0.,4.8,0.,4.8,0.,4.8,0.,4.8
1989-08-24T00:33:07.240 ,3,0,0.,4.8,0.,4.8,0.,4.8,0.,4.8
1989-08-24T00:33:12.040 ,3,0,0.,4.8,0.,4.8,0.,4.8,0.,4.8
1989-08-24T00:33:16.840 ,3,0,0.,4.8,0.,4.8,0.,4.8,0.,4.8